Вернуться в каталог

HULIANWANG DIGUI-37

АктивенСвязьPO
NORAD 64958·PAYLOAD·🇨🇳 China

Запущен Jul 27, 2025 с Taiyuan Satellite Launch Center

Loading…

Ближайшие Пролёты (ближайшие 24 часа)

TLE

СвежийSource: Space-Track

Эпоха: Sep 14, 2026, 21:58 UTC

1 64958U 25159C   26257.91577830 -.00000066  00000-0 -18751-3 0  9995
2 64958  86.4855 251.9323 0002032  91.4164 268.7203 13.24404090 55002

Отслеживайте HULIANWANG DIGUI-37 в реальном времени с AllMySat

Download on the App Store